Regional Weather Roundup
Issued by NWS

Home | Current Version | Previous Version | Text Only | Print | Product List | Glossary On
Versions: 1 2 3 4 5 6 7 8 9 10 11 12 13 14 15 16 17 18 19 20 21 22 23 24 25 26 27 28 29 30 31 32 33 34 35 36 37 38 39 40 41 42 43 44 45 46 47 48 49 50
000
ASUS43 KOAX 250502
RWRNE

WEATHER ROUNDUP FOR NEBRASKA
NATIONAL WEATHER SERVICE OMAHA NE
1200 AM CDT SAT MAR 25 2017

NOTES: SATELLITE DATA IS BEING USED TO AUGMENT CLOUD COVER ABOVE
       12000 FEET.
       "FAIR" INDICATES FEW OR NO CLOUDS BELOW 12,000 FEET WITH NO
       SIGNIFICANT WEATHER AND/OR OBSTRUCTIONS TO VISIBILITY.

  * THESE STATIONS DO NOT REPORT WEATHER SUCH AS RAIN...SNOW OR FOG.

NEZ001>004-019>022-054>056-250600-
NEBRASKA PANHANDLE

CITY           SKY/WX    TMP DP  RH WIND       PRES   REMARKS
SCOTTSBLUFF    CLEAR     35  27  72 E5        30.11S WCI  31
ALLIANCE       CLEAR     32  27  81 E6        30.10F WCI  26
CHADRON        CLEAR     43  29  57 S13       30.08F
KIMBALL        CLEAR     35  30  82 SW6       30.13S WCI  30
SIDNEY         CLEAR     25  21  85 SW5       30.13S WCI  19
$$

NEZ057>060-069>072-079>082-250600-
SOUTHWEST NEBRASKA

CITY           SKY/WX    TMP DP  RH WIND       PRES   REMARKS
NORTH PLATTE   CLOUDY    41  34  76 N9        30.08S
IMPERIAL       PTCLDY    39  34  82 N10       30.09F WCI  32
LEXINGTON      CLOUDY    42  38  84 NE14      30.04F
MCCOOK         CLOUDY    42  41  96 NE5       30.06S
OGALLALA       CLEAR     37  31  78 CALM      30.11S
$$

NEZ005>010-023>029-035>040-094-250600-
NORTH CENTRAL NEBRASKA

CITY           SKY/WX    TMP DP  RH WIND       PRES   REMARKS
VALENTINE      CLEAR     31  26  82 NW3       30.12F
AINSWORTH      CLEAR     34  31  91 N5        30.11S WCI  29
BROKEN BOW     CLOUDY    42  38  85 N10       30.05F
O`NEILL        CLOUDY    39  37  92 N9        30.09F WCI  33
ORD            CLOUDY    41  37  86 NE10      30.06S
THEDFORD       CLEAR     36  31  82 N6        30.10F WCI  31
$$

NEZ041-046>049-061>064-073>077-083>087-250600-
SOUTH CENTRAL NEBRASKA

CITY           SKY/WX    TMP DP  RH WIND       PRES   REMARKS
GRAND ISLAND   CLOUDY    39  39 100 N17       30.04F WCI  30
AURORA         CLOUDY    40  38  95 N16       30.01F WCI  31
HASTINGS       CLOUDY    40  38  93 N16       30.02F WCI  31
HEBRON         CLOUDY    41  39  91 N10G17    29.96F
HOLDREGE       CLOUDY    41  38  92 N18       30.02F
KEARNEY *      CLOUDY    41  36  81 N12       30.04F
YORK           CLOUDY    41  39  93 NE17      30.00F
$$

NEZ011>018-030>034-042>045-250600-
NORTHEAST NEBRASKA

CITY           SKY/WX    TMP DP  RH WIND       PRES   REMARKS
NORFOLK        CLOUDY    38  36  92 NE14      30.05F FOG     WCI  30
ALBION         CLOUDY    40  38  90 N9G16     30.06F FOG     WCI  35
BLAIR          RAIN      41  40  95 NE14G23   29.98S
FREMONT        RAIN      41  41  99 N7        30.01F
TEKAMAH        CLOUDY    42  39  89 N15       30.03F
WAYNE          CLOUDY    39  39  98 NE15      30.06F FOG     WCI  31
$$

NEZ050>053-065>068-078-088>093-250600-
SOUTHEAST NEBRASKA

CITY           SKY/WX    TMP DP  RH WIND       PRES   REMARKS
LINCOLN        LGT RAIN  42  40  92 N15       29.99F
OMAHA EPPLEY   LGT RAIN  42  37  82 N15       29.99F
BEATRICE       RAIN      42  40  93 N14G23    29.93F
FALLS CITY     LGT RAIN  45  44  97 N15       29.89F
NEBRASKA CITY  LGT RAIN  41  41 100 N21G26    29.91F
PLATTSMOUTH    LGT RAIN  42  38  89 N9G16     29.95F
$$

NEZ044-045-051>053-067-250600-
OMAHA AREA

CITY           SKY/WX    TMP DP  RH WIND       PRES   REMARKS
OMAHA EPPLEY   LGT RAIN  42  37  82 N15       29.99F
BLAIR          RAIN      41  40  95 NE14G23   29.98S
FREMONT        RAIN      41  41  99 N7        30.01F
MILLARD        LGT RAIN  43  42  94 NE8       29.99F
OFFUTT AFB     CLOUDY    42  39  90 N13       29.97F
PLATTSMOUTH    LGT RAIN  42  38  89 N9G16     29.95F
WAHOO          RAIN      41  39  93 N13G20    29.99F
$$




USA.gov is the U.S. government's official web portal to all federal, state and local government web resources and services.